Location: Lafig�re
(44.4503°N, 4.0357°E)
Time: 13:28:49
(UTC+00:00)

S-56A Canister/Altair - Pass Details

Date: 30 January 2021
Orbit: 631 x 2501 km, 38.9° (Epoch: 01 March)

Event Time Altitude Azimuth Distance (km) Brightness Sun altitude
Rises 05:57:52 0° 262° (W) 2,943 - -12.1°
Exits shadow 06:00:29 - 241° (WSW) 2,308 9.5 -11.6°
Reaches altitude 10° 06:01:39 10° 229° (SW) 2,157 9.5 -11.4°
Maximum altitude 06:03:18 12° 208° (SSW) 2,130 9.7 -11.1°
Drops below altitude 10° 06:05:05 10° 188° (S) 2,345 10.1 -10.8°
Sets 06:09:47 0° 158° (SSE) 3,631 11.6 -10.0°
